[[{"header":{"parameterUnit":"m.s-1","parameterCategory":1,"la1":30.2991,"la2":30.254,"lo1":-89.0895,"lo2":-89.0444,"dy":0.0017,"dx":0.0017,"nx":28,"ny":28,"refTime":"2026-01-30T09:00:00:Z","depth":0,"parameterNumber":2,"parameterNumberName":"U-component_of_WINDS"},"data":[0,0,0,0,0,0,0,0,0,0,0,0,0,0,0,0,0,0,0,0,0,0,0,0,0,0,0,0,0,0,0,0,0,0,0,0,0,0,0,0,0,0,0,0,0,0,0,0,0,0,0,0,0,0,0,0,0,0,4.0453,4.0454,0,4.0532,4.0533,4.0533,4.051,4.0509,4.0507,4.0506,4.0583,4.0587,4.059,0,0,0,0,0,0,0,0,0,0,0,0,0,4.0283,4.0287,4.0453,4.0454,4.0455,4.0531,4.0533,4.0534,4.0511,4.0509,4.0507,4.0505,4.0582,4.0586,4.0591,0,0,0,0,0,0,0,0,0,0,0,0,0,4.0359,4.0288,4.0453,4.0453,4.0454,4.0531,4.0533,4.0534,4.0511,4.0509,4.0506,4.0504,4.0581,4.0586,4.0591,4.0672,0,0,4.0607,4.061,0,0,0,0,0,0,0,0,4.0355,4.0365,4.0452,4.0453,4.0454,4.0509,4.0501,4.058,4.0512,4.0489,4.0506,4.0503,4.056,4.0567,4.0587,4.0676,4.0679,4.0608,4.0611,4.0613,4.0615,0,0,0,0,0,0,0,4.0349,4.0362,4.0484,4.0453,4.0455,4.0449,4.0457,4.0516,4.0537,4.0491,4.049,4.0499,4.056,4.0582,4.0589,4.068,4.0608,4.0613,4.0616,4.0618,4.0842,4.0844,0,0,0,0,0,0,4.0344,4.0357,4.0482,4.0487,4.0398,4.0454,4.0463,4.0494,4.0537,4.0541,4.0501,4.0498,4.0574,4.0582,4.0591,4.069,4.0613,4.0618,4.0622,4.0839,4.0842,4.0845,0,0,0,0,0,0,4.034,4.0355,4.0479,4.0422,4.0437,4.046,4.0494,4.0497,4.0518,4.0544,4.0548,4.052,4.0572,4.0584,4.0653,4.0692,4.0621,4.0626,4.0836,4.084,4.0844,4.0888,0,0,0,0,0,0,4.0335,4.0354,4.0385,4.0423,4.044,4.0539,4.0497,4.05,4.0528,4.0524,4.0562,4.0566,4.0571,4.0645,4.0658,4.0698,4.063,4.0832,4.0838,4.0843,4.0883,4.0893,4.0901,0,0,0,0,0,4.0329,4.0393,4.0387,4.0402,4.048,4.0542,4.0552,4.0557,4.0531,4.0562,4.058,4.0565,4.0686,4.0652,4.0667,4.0709,4.083,4.0836,4.0842,4.0879,4.0891,4.0901,0,0,0,0,0,0,4.0358,4.0398,4.0391,4.0469,4.0503,4.0538,4.0577,4.0569,4.061,4.0604,4.0609,4.0617,4.0689,4.0706,4.0668,4.0791,4.0754,4.0764,4.0777,4.0789,4.0798,4.0792,4.0634,0,0,0,0,0,4.0374,4.0421,4.0453,4.0519,4.0537,4.0554,4.0581,4.0583,4.0617,4.063,4.0653,4.0686,4.0731,4.0761,4.0804,4.0886,4.0894,4.0922,4.0932,4.0939,4.0947,4.0992,4.1005,4.0866,4.0866,4.0865,0,0,4.0406,4.0434,4.0463,4.0526,4.0552,4.0601,4.0566,4.0619,4.0655,4.0638,4.0705,4.0723,4.076,4.0836,4.0871,4.0853,4.0988,4.0947,4.0953,4.0956,4.1,4.1013,4.1025,4.087,4.0869,4.0868,0,0,4.049,4.0516,4.0574,4.0601,4.0641,4.0653,4.0668,4.0705,4.0716,4.0784,4.0773,4.0816,4.0894,4.0922,4.0946,4.1043,4.1032,4.1057,4.1105,4.1149,4.116,4.117,4.1205,4.1218,4.1065,4.1065,4.1065,0,4.0524,4.0598,4.0605,4.0659,4.0687,4.0676,4.0735,4.0761,4.0813,4.0833,4.0813,4.0912,4.0936,4.1019,4.1043,4.1063,4.1079,4.1052,4.1159,4.1168,4.1178,4.1211,4.1224,4.1068,4.1068,4.1068,4.1067,0,4.0639,4.0691,4.0733,4.0785,4.0818,4.0875,4.089,4.0922,4.0922,4.0936,4.1006,4.1035,4.1085,4.1105,4.1104,4.1188,4.1176,4.1157,4.112,4.1194,4.1225,4.1238,4.1072,4.1071,4.107,4.107,0,0,4.0741,4.0798,4.0813,4.0838,4.0882,4.0922,4.0979,4.1029,4.1057,4.1094,4.1141,4.1209,4.1193,4.1221,4.1223,4.1262,4.1338,4.1239,4.124,4.1256,4.1433,4.1446,4.1461,4.1331,4.1334,4.1336,4.143,0,4.0829,4.0929,4.0937,4.1027,4.1075,4.1067,4.1116,4.1149,4.1165,4.1207,4.1224,4.1272,4.1247,4.1264,4.1302,4.1321,4.1374,4.1314,4.1375,4.1377,4.1365,4.1477,4.1491,4.1578,4.1442,4.1444,4.1446,0,4.0943,4.0986,4.1081,4.1121,4.1141,4.1185,4.1233,4.1274,4.1312,4.132,4.1353,4.135,4.1409,4.1371,4.1452,4.1411,4.1437,4.145,4.1454,4.1458,4.1415,4.1485,4.1606,4.1619,4.1465,4.1464,4.1462,0,4.1008,4.1089,4.1156,4.1177,4.1225,4.1257,4.1278,4.1314,4.1344,4.1385,4.1405,4.1452,4.1478,4.1515,4.1526,4.1497,4.1607,4.1569,4.1615,4.1615,4.1637,4.1635,4.1764,4.1655,4.1655,4.1655,4.1655,0,4.1105,4.1163,4.1186,4.1228,4.1294,4.1303,4.1368,4.1388,4.142,4.1465,4.1461,4.1503,4.1515,4.156,4.1569,4.1635,4.1647,4.1655,4.1656,4.1655,4.1654,4.1671,4.1665,4.1658,4.1658,4.1657,4.1656,0,4.1187,4.1205,4.1278,4.1319,4.1331,4.1377,4.1412,4.1452,4.1468,4.1525,4.1539,4.1563,4.1616,4.1631,4.1694,4.17,4.1778,4.1774,4.1765,4.1765,4.181,4.1805,4.1953,4.1973,4.1852,4.1853,4.1854,0,4.1247,4.1292,4.1338,4.1369,4.1392,4.1441,4.1472,4.1484,4.1517,4.1565,4.1599,4.1652,4.1694,4.1779,4.1802,4.1851,4.1847,4.1896,4.1854,4.1852,4.1848,4.1845,4.185,4.1903,4.1905,4.1906,4.1907,0,4.1351,4.1359,4.1404,4.1454,4.1492,4.1531,4.1569,4.1594,4.1612,4.1649,4.1704,4.1737,4.1802,4.1854,4.1904,4.1926,4.1919,4.192,4.1933,4.1931,4.1924,4.1929,4.1786,4.1916,4.1915,4.1914,4.1914,4.1913,4.1424,4.1464,4.1504,4.1555,4.1585,4.1621,4.1662,4.1683,4.1729,4.1784,4.1789,4.1848,4.1886,4.1952,4.1977,4.2024,4.2009,4.2028,4.2033,4.2037,4.2041,4.1918,4.2033,4.2032,4.2032,4.2032,4.2032,0,4.1528,4.1554,4.1601,4.1655,4.1696,4.1688,4.173,4.1765,4.1817,4.1854,4.1896,4.196,4.2011,4.2039,4.209,4.2122,4.2121,4.2135,4.2132,4.2138,4.2051,4.2034,4.2136,4.2136,4.2136,4.2136,4.2136,4.2136,4.1587,4.1655,4.1667,4.1751,4.1776,4.1834,4.1859,4.1893,4.1922,4.1993,4.2036,4.2055,4.2089,4.2143,4.2189,4.2196,4.2215,4.2231,4.2237,4.2154,4.2144,4.2133,4.2118,4.2236,4.2236,4.232,4.2321,4.2321]},{"header":{"parameterUnit":"m.s-1","parameterCategory":1,"la1":30.2991,"la2":30.254,"lo1":-89.0895,"lo2":-89.0444,"dy":0.0017,"dx":0.0017,"nx":28,"ny":28,"refTime":"2026-01-30T09:00:00:Z","depth":0,"parameterNumber":3,"parameterNumberName":"V-component_of_WINDS"},"data":[0,0,0,0,0,0,0,0,0,0,0,0,0,0,0,0,0,0,0,0,0,0,0,0,0,0,0,0,0,0,0,0,0,0,0,0,0,0,0,0,0,0,0,0,0,0,0,0,0,0,0,0,0,0,0,0,0,0,-9.0745,-9.0747,0,-9.0913,-9.0915,-9.0917,-9.0825,-9.082,-9.0816,-9.0811,-9.0977,-9.0986,-9.0994,0,0,0,0,0,0,0,0,0,0,0,0,0,-9.0339,-9.0347,-9.0744,-9.0747,-9.0749,-9.0913,-9.0915,-9.0917,-9.0825,-9.082,-9.0814,-9.0809,-9.0974,-9.0984,-9.0995,0,0,0,0,0,0,0,0,0,0,0,0,0,-9.0512,-9.035,-9.0744,-9.0723,-9.0723,-9.0912,-9.0915,-9.0918,-9.0827,-9.082,-9.0813,-9.0806,-9.0971,-9.0983,-9.0996,-9.1214,0,0,-9.1036,-9.1042,0,0,0,0,0,0,0,0,-9.0502,-9.0527,-9.0724,-9.0725,-9.0725,-9.0841,-9.0833,-9.1017,-9.0828,-9.0787,-9.0811,-9.0803,-9.0937,-9.0952,-9.0999,-9.1222,-9.1229,-9.1037,-9.1045,-9.1051,-9.1054,0,0,0,0,0,0,0,-9.049,-9.0519,-9.0811,-9.0727,-9.0728,-9.0703,-9.072,-9.0867,-9.0898,-9.079,-9.0784,-9.0805,-9.0936,-9.0986,-9.1002,-9.1232,-9.1037,-9.1049,-9.1057,-9.1062,-9.1643,-9.165,0,0,0,0,0,0,-9.048,-9.051,-9.0805,-9.0816,-9.0595,-9.0716,-9.0735,-9.081,-9.0896,-9.0903,-9.0811,-9.08,-9.0968,-9.0987,-9.1007,-9.1269,-9.1051,-9.1063,-9.107,-9.1635,-9.1644,-9.1653,0,0,0,0,0,0,-9.0472,-9.0508,-9.0799,-9.0661,-9.0697,-9.0731,-9.0816,-9.0817,-9.0868,-9.0912,-9.0917,-9.0858,-9.0963,-9.0989,-9.1164,-9.1273,-9.1069,-9.1081,-9.1626,-9.1638,-9.1649,-9.1793,0,0,0,0,0,0,-9.0461,-9.0505,-9.059,-9.0664,-9.0704,-9.0955,-9.0823,-9.0826,-9.0891,-9.0879,-9.0957,-9.0963,-9.0959,-9.1145,-9.1177,-9.1288,-9.1091,-9.1616,-9.1631,-9.1645,-9.1779,-9.1808,-9.1834,0,0,0,0,0,-9.0447,-9.0622,-9.0594,-9.063,-9.0811,-9.0961,-9.0984,-9.0978,-9.0901,-9.0985,-9.1014,-9.0961,-9.1256,-9.1164,-9.1199,-9.1315,-9.161,-9.1627,-9.1644,-9.1767,-9.1803,-9.1833,0,0,0,0,0,0,-9.0557,-9.0631,-9.0601,-9.0806,-9.0879,-9.0946,-9.1052,-9.1016,-9.111,-9.1094,-9.108,-9.1099,-9.1281,-9.1315,-9.1211,-9.1531,-9.1421,-9.1446,-9.1502,-9.1537,-9.1563,-9.1551,-9.1102,0,0,0,0,0,-9.0606,-9.0724,-9.0781,-9.0956,-9.0995,-9.1018,-9.1083,-9.1072,-9.1145,-9.1175,-9.1216,-9.1287,-9.1396,-9.1468,-9.1571,-9.1783,-9.1799,-9.1881,-9.1908,-9.193,-9.1952,-9.2067,-9.2104,-9.1709,-9.1709,-9.1708,0,0,-9.0706,-9.0761,-9.0836,-9.098,-9.1035,-9.1156,-9.1043,-9.1176,-9.1265,-9.1194,-9.1363,-9.1396,-9.1474,-9.167,-9.1758,-9.1704,-9.2064,-9.1952,-9.1969,-9.1979,-9.2089,-9.2126,-9.2159,-9.1721,-9.1718,-9.1717,0,0,-9.0952,-9.1006,-9.1158,-9.1216,-9.1301,-9.1316,-9.1353,-9.1426,-9.1446,-9.1616,-9.1565,-9.167,-9.1858,-9.1916,-9.1971,-9.2241,-9.2196,-9.2274,-9.2416,-9.2529,-9.2561,-9.2588,-9.2685,-9.2719,-9.2296,-9.2296,-9.2296,0,-9.1066,-9.1248,-9.1241,-9.1378,-9.1443,-9.1387,-9.1541,-9.1596,-9.171,-9.1755,-9.1693,-9.1929,-9.1978,-9.2187,-9.2253,-9.2299,-9.234,-9.2265,-9.2557,-9.2585,-9.261,-9.2702,-9.2738,-9.2305,-9.2304,-9.2303,-9.2302,0,-9.1384,-9.1512,-9.1624,-9.1739,-9.1816,-9.1961,-9.1974,-9.2053,-9.2036,-9.2056,-9.2229,-9.2287,-9.24,-9.2449,-9.2432,-9.2656,-9.262,-9.2558,-9.2447,-9.2657,-9.2743,-9.2778,-9.2318,-9.2315,-9.2312,-9.231,0,0,-9.1703,-9.1813,-9.1855,-9.1906,-9.1997,-9.2094,-9.2236,-9.235,-9.2418,-9.2498,-9.2617,-9.2778,-9.2722,-9.2784,-9.2774,-9.2873,-9.3084,-9.2799,-9.28,-9.285,-9.3334,-9.338,-9.3421,-9.3055,-9.3061,-9.3067,-9.3327,0,-9.1955,-9.2206,-9.2204,-9.2436,-9.2553,-9.2503,-9.2626,-9.2694,-9.2718,-9.2819,-9.2843,-9.2959,-9.2876,-9.2913,-9.3009,-9.3038,-9.3181,-9.3019,-9.3163,-9.3169,-9.3146,-9.3466,-9.3515,-9.3758,-9.3361,-9.3366,-9.337,0,-9.2283,-9.2377,-9.2621,-9.2696,-9.2745,-9.2857,-9.2962,-9.306,-9.3136,-9.3146,-9.3217,-9.3191,-9.3334,-9.322,-9.3416,-9.3306,-9.3365,-9.3388,-9.3398,-9.3411,-9.3282,-9.3487,-9.3835,-9.3872,-9.3423,-9.3419,-9.3415,0,-9.2491,-9.2679,-9.285,-9.2896,-9.2987,-9.3067,-9.3108,-9.3178,-9.3247,-9.3337,-9.3382,-9.3487,-9.3545,-9.3626,-9.363,-9.3546,-9.3829,-9.3714,-9.384,-9.384,-9.3901,-9.3897,-9.4263,-9.3939,-9.3939,-9.3938,-9.3937,0,-9.2773,-9.2925,-9.2945,-9.305,-9.3218,-9.3214,-9.338,-9.3414,-9.3477,-9.3586,-9.3547,-9.365,-9.3649,-9.3753,-9.3757,-9.3919,-9.3945,-9.3956,-9.3955,-9.396,-9.3959,-9.3998,-9.3981,-9.3948,-9.3946,-9.3944,-9.3942,0,-9.3035,-9.3055,-9.3238,-9.331,-9.3332,-9.3453,-9.3514,-9.3613,-9.3633,-9.3773,-9.3805,-9.3836,-9.3958,-9.3969,-9.4109,-9.4111,-9.4308,-9.4288,-9.4283,-9.428,-9.4405,-9.4394,-9.481,-9.4864,-9.4505,-9.4508,-9.4511,0,-9.3213,-9.3329,-9.3415,-9.3487,-9.3534,-9.365,-9.3721,-9.3721,-9.3796,-9.3893,-9.3981,-9.4099,-9.4193,-9.4389,-9.4423,-9.453,-9.4513,-9.4651,-9.4528,-9.453,-9.4515,-9.4509,-9.452,-9.4675,-9.4679,-9.4682,-9.4685,0,-9.3529,-9.3533,-9.3638,-9.3748,-9.3835,-9.392,-9.4,-9.406,-9.407,-9.4156,-9.4282,-9.4356,-9.45,-9.4618,-9.4723,-9.4763,-9.4726,-9.4724,-9.4758,-9.4764,-9.4757,-9.4763,-9.4349,-9.4714,-9.4711,-9.4709,-9.4707,-9.4706,-9.3754,-9.3855,-9.3933,-9.4051,-9.4112,-9.4188,-9.4286,-9.4319,-9.4424,-9.4544,-9.4537,-9.4675,-9.4748,-9.4887,-9.4935,-9.5042,-9.4995,-9.5046,-9.5058,-9.5071,-9.5084,-9.474,-9.5061,-9.506,-9.5059,-9.5059,-9.5058,0,-9.4068,-9.4116,-9.4225,-9.434,-9.4433,-9.4392,-9.4479,-9.4559,-9.4682,-9.4755,-9.485,-9.4994,-9.5108,-9.5152,-9.5263,-9.534,-9.5326,-9.5369,-9.5363,-9.5373,-9.5119,-9.5078,-9.5379,-9.5379,-9.5379,-9.5379,-9.5379,-9.5379,-9.4242,-9.4412,-9.4426,-9.4624,-9.467,-9.4808,-9.4861,-9.493,-9.4988,-9.5152,-9.5248,-9.5276,-9.5337,-9.5453,-9.5556,-9.5565,-9.5608,-9.5659,-9.5661,-9.5423,-9.5391,-9.536,-9.5322,-9.5668,-9.5669,-9.5906,-9.5909,-9.591]}]]